[[{"header":{"parameterUnit":"m.s-1","parameterCategory":2,"la1":30.2991,"la2":30.254,"lo1":-89.0895,"lo2":-89.0444,"dy":0.0017,"dx":0.0017,"nx":28,"ny":28,"refTime":"2024-06-12T09:00:00:Z","depth":"0","parameterNumber":2,"parameterNumberName":"U-component_of_CURRENTS"},"data":[0,0,0,0,0,0,0,0,0,0,0,0,0,0,0,0,0,0,0,0,0,0,0,0,0,0,0,0,0,0,0,0,0,0,0,0,0,0,0,0,0,0,0,0,0,0,0,0,0,0,0,0,0,0,0,0,0,0,-0.2614,-0.2614,0,-0.2521,-0.252,-0.2519,-0.2462,-0.2462,-0.2461,-0.2461,-0.2392,-0.239,-0.2388,0,0,0,0,0,0,0,0,0,0,0,0,0,-0.2639,-0.2639,-0.2614,-0.2613,-0.2612,-0.2521,-0.252,-0.2518,-0.2462,-0.2462,-0.2461,-0.2461,-0.2392,-0.239,-0.2388,0,0,0,0,0,0,0,0,0,0,0,0,0,-0.2594,-0.264,-0.2615,-0.2575,-0.2571,-0.2522,-0.252,-0.2518,-0.2462,-0.2462,-0.2461,-0.2461,-0.2393,-0.239,-0.2388,-0.2374,0,0,-0.238,-0.2379,0,0,0,0,0,0,0,0,-0.2596,-0.2593,-0.2582,-0.2578,-0.2573,-0.2505,-0.2503,-0.2472,-0.2462,-0.2501,-0.2461,-0.2461,-0.2433,-0.2427,-0.2407,-0.2371,-0.2368,-0.2379,-0.2378,-0.2377,-0.2376,0,0,0,0,0,0,0,-0.26,-0.2596,-0.2575,-0.2581,-0.2575,-0.2526,-0.252,-0.2496,-0.2468,-0.2497,-0.2493,-0.2487,-0.2431,-0.2409,-0.2405,-0.2367,-0.238,-0.2377,-0.2376,-0.2374,-0.2312,-0.2312,0,0,0,0,0,0,-0.2622,-0.2599,-0.2578,-0.2573,-0.2587,-0.2526,-0.252,-0.2525,-0.2467,-0.2459,-0.2487,-0.2484,-0.2414,-0.2408,-0.2402,-0.24,-0.2377,-0.2374,-0.2373,-0.2312,-0.2312,-0.2312,0,0,0,0,0,0,-0.2623,-0.2621,-0.2582,-0.2585,-0.2577,-0.2527,-0.2533,-0.2523,-0.2505,-0.2459,-0.2451,-0.2479,-0.2413,-0.2406,-0.2372,-0.2397,-0.2373,-0.2371,-0.2312,-0.2312,-0.2312,-0.2386,0,0,0,0,0,0,-0.2624,-0.2622,-0.2624,-0.2587,-0.2577,-0.2571,-0.2533,-0.2522,-0.2502,-0.2497,-0.245,-0.2443,-0.2413,-0.2376,-0.2369,-0.2393,-0.2369,-0.2312,-0.2312,-0.2312,-0.2383,-0.2388,-0.2392,0,0,0,0,0,-0.2625,-0.2646,-0.2625,-0.2622,-0.2586,-0.2572,-0.2563,-0.2525,-0.2502,-0.2505,-0.2455,-0.2445,-0.2371,-0.2373,-0.2365,-0.2389,-0.2312,-0.2312,-0.2312,-0.2381,-0.2387,-0.2392,0,0,0,0,0,0,-0.2656,-0.2641,-0.2618,-0.2631,-0.2607,-0.2564,-0.2562,-0.2531,-0.2492,-0.2486,-0.2436,-0.2425,-0.2406,-0.2381,-0.2385,-0.2368,-0.2344,-0.2342,-0.2399,-0.2404,-0.2408,-0.2441,-0.2366,0,0,0,0,0,-0.2665,-0.2675,-0.2647,-0.2653,-0.265,-0.2603,-0.2588,-0.2565,-0.2528,-0.2511,-0.2474,-0.2433,-0.2399,-0.2388,-0.2355,-0.2345,-0.2312,-0.2356,-0.236,-0.2364,-0.2384,-0.2358,-0.2362,-0.2311,-0.2311,-0.2311,0,0,-0.2673,-0.2668,-0.267,-0.2659,-0.2637,-0.2644,-0.2594,-0.2588,-0.2583,-0.2511,-0.2492,-0.2446,-0.2396,-0.238,-0.2372,-0.2365,-0.2352,-0.2364,-0.2368,-0.2386,-0.2358,-0.2363,-0.2368,-0.2311,-0.2311,-0.2311,0,0,-0.2709,-0.27,-0.2721,-0.2716,-0.2698,-0.2675,-0.2679,-0.2642,-0.2617,-0.2589,-0.2534,-0.2502,-0.2452,-0.2424,-0.2402,-0.2412,-0.2371,-0.2401,-0.2459,-0.2434,-0.2438,-0.2442,-0.2372,-0.2369,-0.241,-0.2411,-0.2411,0,-0.2716,-0.2734,-0.2722,-0.2746,-0.274,-0.2698,-0.2713,-0.2692,-0.2642,-0.2626,-0.2599,-0.2517,-0.2478,-0.2457,-0.2457,-0.2428,-0.2386,-0.2446,-0.2442,-0.2445,-0.2448,-0.2375,-0.2371,-0.2414,-0.2414,-0.2413,-0.2413,0,-0.2764,-0.2776,-0.2794,-0.2808,-0.281,-0.2814,-0.2793,-0.2785,-0.2746,-0.2715,-0.2677,-0.2609,-0.2565,-0.2548,-0.2505,-0.2506,-0.2458,-0.2447,-0.2436,-0.2458,-0.2378,-0.2373,-0.2419,-0.2418,-0.2417,-0.2416,0,0,-0.2753,-0.2814,-0.281,-0.2814,-0.2835,-0.2828,-0.2855,-0.284,-0.2833,-0.2795,-0.2774,-0.2721,-0.268,-0.2652,-0.2594,-0.2577,-0.2543,-0.2528,-0.2525,-0.2471,-0.245,-0.2415,-0.2404,-0.2533,-0.2533,-0.2533,-0.2374,0,-0.277,-0.2814,-0.2853,-0.2874,-0.2877,-0.2888,-0.2906,-0.2899,-0.2873,-0.285,-0.28,-0.2751,-0.272,-0.2678,-0.2668,-0.256,-0.2538,-0.2586,-0.2426,-0.2421,-0.2399,-0.2401,-0.2309,-0.216,-0.2368,-0.2367,-0.2366,0,-0.2765,-0.2793,-0.282,-0.2868,-0.2875,-0.2893,-0.2895,-0.2908,-0.2904,-0.289,-0.2873,-0.2822,-0.2775,-0.2744,-0.2626,-0.2653,-0.2573,-0.2502,-0.2494,-0.2442,-0.2378,-0.2177,-0.2142,-0.2105,-0.2357,-0.2358,-0.2359,0,-0.2665,-0.2752,-0.2761,-0.2775,-0.2838,-0.2851,-0.2877,-0.2897,-0.2883,-0.2894,-0.2871,-0.2847,-0.277,-0.2714,-0.2584,-0.2596,-0.2446,-0.2436,-0.2332,-0.2325,-0.2207,-0.2192,-0.2135,-0.2383,-0.2383,-0.2384,-0.2384,0,-0.2603,-0.2599,-0.2713,-0.2692,-0.2696,-0.2784,-0.2769,-0.2807,-0.2841,-0.2814,-0.2857,-0.2806,-0.276,-0.2669,-0.259,-0.2433,-0.2446,-0.2343,-0.2296,-0.2225,-0.2213,-0.2146,-0.2164,-0.2378,-0.2379,-0.238,-0.2381,0,-0.242,-0.251,-0.2505,-0.2598,-0.2623,-0.2601,-0.2666,-0.2657,-0.2732,-0.2697,-0.2694,-0.2723,-0.2634,-0.2577,-0.245,-0.2391,-0.2226,-0.2224,-0.2128,-0.2076,-0.1971,-0.1997,-0.1899,-0.185,-0.208,-0.2078,-0.2077,0,-0.2311,-0.2298,-0.2377,-0.2364,-0.2386,-0.2402,-0.2404,-0.2537,-0.2544,-0.2619,-0.2581,-0.2551,-0.2499,-0.2335,-0.2258,-0.2132,-0.2125,-0.1967,-0.2004,-0.1961,-0.1954,-0.1974,-0.1942,-0.1839,-0.1836,-0.1834,-0.1832,0,-0.2081,-0.2121,-0.2119,-0.2118,-0.2121,-0.2142,-0.2184,-0.2199,-0.2349,-0.2367,-0.2392,-0.2379,-0.229,-0.2154,-0.2043,-0.1961,-0.1928,-0.1911,-0.1888,-0.1796,-0.179,-0.1719,-0.1925,-0.1809,-0.1811,-0.1813,-0.1814,-0.1815,-0.1883,-0.1841,-0.1871,-0.1854,-0.187,-0.1899,-0.1869,-0.1973,-0.2013,-0.2054,-0.2143,-0.2093,-0.2042,-0.19,-0.1831,-0.1688,-0.1759,-0.161,-0.1644,-0.1668,-0.1645,-0.1802,-0.1641,-0.1642,-0.1643,-0.1644,-0.1645,0,-0.165,-0.1647,-0.1615,-0.1617,-0.158,-0.1672,-0.1723,-0.1703,-0.1727,-0.1794,-0.1807,-0.1767,-0.1652,-0.1618,-0.1507,-0.1427,-0.1406,-0.1386,-0.1384,-0.1364,-0.1489,-0.1506,-0.1283,-0.1283,-0.1283,-0.1283,-0.1283,-0.1283,-0.1519,-0.144,-0.1458,-0.1354,-0.1353,-0.1291,-0.1301,-0.132,-0.1355,-0.1339,-0.1337,-0.138,-0.1398,-0.1454,-0.1342,-0.1277,-0.1249,-0.1208,-0.1245,-0.1333,-0.1356,-0.1379,-0.1398,-0.1157,-0.1157,-0.1053,-0.1052,-0.1052]},{"header":{"parameterUnit":"m.s-1","parameterCategory":2,"la1":30.2991,"la2":30.254,"lo1":-89.0895,"lo2":-89.0444,"dy":0.0017,"dx":0.0017,"nx":28,"ny":28,"refTime":"2024-06-12T09:00:00:Z","depth":"0","parameterNumber":3,"parameterNumberName":"V-component_of_CURRENTS"},"data":[0,0,0,0,0,0,0,0,0,0,0,0,0,0,0,0,0,0,0,0,0,0,0,0,0,0,0,0,0,0,0,0,0,0,0,0,0,0,0,0,0,0,0,0,0,0,0,0,0,0,0,0,0,0,0,0,0,0,-0.0383,-0.0382,0,-0.0292,-0.0291,-0.029,-0.0241,-0.0241,-0.024,-0.024,-0.0152,-0.015,-0.0148,0,0,0,0,0,0,0,0,0,0,0,0,0,-0.0511,-0.0509,-0.0383,-0.0382,-0.038,-0.0292,-0.0291,-0.029,-0.0241,-0.024,-0.024,-0.024,-0.0153,-0.015,-0.0148,0,0,0,0,0,0,0,0,0,0,0,0,0,-0.0443,-0.0508,-0.0383,-0.0344,-0.034,-0.0292,-0.0291,-0.0289,-0.0241,-0.024,-0.024,-0.024,-0.0153,-0.015,-0.0147,-0.0135,0,0,-0.0137,-0.0136,0,0,0,0,0,0,0,0,-0.0446,-0.0438,-0.0351,-0.0347,-0.0342,-0.0276,-0.0303,-0.0237,-0.0241,-0.028,-0.024,-0.024,-0.0193,-0.0187,-0.0172,-0.0131,-0.0127,-0.0137,-0.0135,-0.0134,-0.0133,0,0,0,0,0,0,0,-0.0451,-0.0442,-0.0348,-0.035,-0.0344,-0.033,-0.032,-0.0291,-0.0241,-0.0276,-0.0272,-0.026,-0.0191,-0.0175,-0.017,-0.0125,-0.0137,-0.0134,-0.0132,-0.0131,-0.0065,-0.0065,0,0,0,0,0,0,-0.046,-0.0446,-0.0351,-0.0345,-0.0393,-0.0328,-0.0317,-0.0299,-0.0241,-0.0231,-0.026,-0.0258,-0.0181,-0.0174,-0.0166,-0.0147,-0.0134,-0.0131,-0.0129,-0.0065,-0.0065,-0.0065,0,0,0,0,0,0,-0.0463,-0.0452,-0.0355,-0.0393,-0.0379,-0.0326,-0.0306,-0.0297,-0.0282,-0.0228,-0.0219,-0.0254,-0.018,-0.0171,-0.0146,-0.0143,-0.0129,-0.0127,-0.0065,-0.0065,-0.0065,-0.0108,0,0,0,0,0,0,-0.0467,-0.0454,-0.0448,-0.0393,-0.0377,-0.0329,-0.0306,-0.0295,-0.0274,-0.027,-0.022,-0.0211,-0.0179,-0.0151,-0.0143,-0.0138,-0.0124,-0.0065,-0.0065,-0.0065,-0.0106,-0.0109,-0.0112,0,0,0,0,0,-0.0472,-0.0465,-0.0448,-0.0437,-0.037,-0.0329,-0.032,-0.0282,-0.0274,-0.0267,-0.0239,-0.0213,-0.0147,-0.0149,-0.0139,-0.0133,-0.0065,-0.0065,-0.0065,-0.0105,-0.0109,-0.0112,0,0,0,0,0,0,-0.0516,-0.0458,-0.0438,-0.0414,-0.0375,-0.032,-0.0308,-0.0288,-0.0259,-0.0258,-0.0215,-0.0205,-0.0184,-0.0155,-0.0158,-0.0116,-0.0101,-0.0099,-0.0134,-0.0138,-0.0141,-0.014,-0.0121,0,0,0,0,0,-0.0524,-0.0503,-0.0448,-0.0428,-0.041,-0.0362,-0.0343,-0.0319,-0.0283,-0.027,-0.0235,-0.0202,-0.0177,-0.0156,-0.013,-0.0104,-0.0066,-0.0094,-0.0097,-0.01,-0.0093,-0.0022,-0.0017,-0.0067,-0.0067,-0.0067,0,0,-0.0534,-0.05,-0.0487,-0.0436,-0.0402,-0.0379,-0.035,-0.0322,-0.0308,-0.0266,-0.024,-0.0215,-0.0176,-0.0151,-0.0138,-0.0124,-0.0073,-0.01,-0.0103,-0.0094,-0.0021,-0.0016,-0.0012,-0.0067,-0.0067,-0.0067,0,0,-0.0545,-0.0514,-0.05,-0.0471,-0.0425,-0.0396,-0.0392,-0.034,-0.0323,-0.0296,-0.0269,-0.0238,-0.0196,-0.0161,-0.0142,-0.0144,-0.0099,-0.0141,-0.0144,-0.0075,-0.007,-0.0065,-0.0041,-0.0034,-0.0133,-0.0134,-0.0134,0,-0.0565,-0.0535,-0.0492,-0.0473,-0.0455,-0.0408,-0.0397,-0.0369,-0.0319,-0.0305,-0.0295,-0.0225,-0.0197,-0.0156,-0.0162,-0.0149,-0.0117,-0.0135,-0.0078,-0.0072,-0.0066,-0.0042,-0.0033,-0.0136,-0.0135,-0.0135,-0.0135,0,-0.0563,-0.0542,-0.0532,-0.0492,-0.0469,-0.0453,-0.0408,-0.0388,-0.0365,-0.0333,-0.0293,-0.0246,-0.02,-0.0191,-0.0178,-0.0127,-0.0124,-0.0098,-0.0068,-0.0063,-0.004,-0.0029,-0.0139,-0.0138,-0.0137,-0.0137,0,0,-0.0616,-0.0547,-0.0547,-0.0538,-0.0483,-0.047,-0.0441,-0.0405,-0.0388,-0.0338,-0.0305,-0.0262,-0.0228,-0.0204,-0.0173,-0.0115,-0.0065,-0.0094,-0.0089,-0.007,0.0059,0.0033,0.0042,-0.0023,-0.002,-0.0019,0.0048,0,-0.0636,-0.0616,-0.057,-0.0562,-0.0552,-0.0501,-0.048,-0.0442,-0.0399,-0.0354,-0.0294,-0.0257,-0.0235,-0.0214,-0.0151,-0.0086,-0.0035,-0.0087,0.0052,0.0055,0.0034,0.0055,0.0111,0.0174,0.0058,0.006,0.0061,0,-0.066,-0.0645,-0.0633,-0.0603,-0.0595,-0.0581,-0.0544,-0.0518,-0.044,-0.0405,-0.0335,-0.028,-0.0205,-0.018,-0.0046,-0.008,-0.0017,0.0038,0.0043,0.0047,0.005,0.0157,0.0197,0.0326,0.0077,0.0076,0.0075,0,-0.0732,-0.07,-0.0698,-0.0685,-0.0632,-0.0625,-0.0608,-0.054,-0.0526,-0.0432,-0.0406,-0.0289,-0.025,-0.0125,-0.004,-0.0025,0.01,0.0142,0.0178,0.0175,0.0265,0.0267,0.0453,0.0249,0.0249,0.0248,0.0248,0,-0.0774,-0.0777,-0.0736,-0.0732,-0.0743,-0.0694,-0.0689,-0.0641,-0.0584,-0.0575,-0.0445,-0.0415,-0.0232,-0.0146,-0.0038,0.0078,0.0105,0.0182,0.0204,0.0245,0.0244,0.0394,0.0437,0.0251,0.025,0.025,0.0249,0,-0.0826,-0.0798,-0.0799,-0.0769,-0.0767,-0.0778,-0.076,-0.0755,-0.0693,-0.0669,-0.0646,-0.0511,-0.0383,-0.0226,-0.0042,0.0052,0.0263,0.0212,0.0216,0.0237,0.0419,0.0456,0.0626,0.0699,0.0308,0.0308,0.0308,0,-0.0839,-0.0842,-0.0834,-0.0845,-0.0829,-0.0843,-0.0848,-0.0811,-0.0811,-0.0745,-0.0745,-0.0615,-0.0517,-0.0268,-0.0052,0.0156,0.0254,0.0299,0.0353,0.0442,0.0502,0.0519,0.0569,0.0448,0.0449,0.045,0.0451,0,-0.0861,-0.0858,-0.0857,-0.0886,-0.0905,-0.0934,-0.095,-0.0977,-0.0942,-0.0917,-0.0876,-0.0787,-0.0521,-0.0238,0.0022,0.0147,0.0409,0.0322,0.0455,0.0657,0.0654,0.0728,0.0349,0.0459,0.0458,0.0458,0.0457,0.0457,-0.0873,-0.0888,-0.0894,-0.0921,-0.0956,-0.1017,-0.1044,-0.1072,-0.1093,-0.1016,-0.0961,-0.0744,-0.0348,0.0061,0.018,0.0507,0.0474,0.0641,0.0684,0.0696,0.0763,0.0358,0.0461,0.046,0.0459,0.0459,0.0458,0,-0.088,-0.0897,-0.0928,-0.0971,-0.1024,-0.1029,-0.1094,-0.1109,-0.1141,-0.0993,-0.0899,-0.041,-0.0034,0.0329,0.0751,0.0895,0.0942,0.0959,0.1052,0.1093,0.0796,0.08,0.0932,0.0932,0.0931,0.0931,0.0931,0.0931,-0.0881,-0.0907,-0.0927,-0.1012,-0.1047,-0.1103,-0.1137,-0.1147,-0.1054,-0.0789,-0.046,-0.0208,0.0265,0.089,0.1251,0.1265,0.1403,0.1357,0.1412,0.1262,0.1237,0.1214,0.1232,0.1452,0.1452,0.1733,0.1736,0.1738]}],[{"header":{"parameterUnit":"m.s-1","parameterCategory":2,"la1":30.2991,"la2":30.254,"lo1":-89.0895,"lo2":-89.0444,"dy":0.0017,"dx":0.0017,"nx":28,"ny":28,"refTime":"2024-06-12T09:00:00:Z","depth":"2","parameterNumber":2,"parameterNumberName":"U-component_of_CURRENTS"},"data":[0,0,0,0,0,0,0,0,0,0,0,0,0,0,0,0,0,0,0,0,0,0,0,0,0,0,0,0,0,0,0,0,0,0,0,0,0,0,0,0,0,0,0,0,0,0,0,0,0,0,0,0,0,0,0,0,0,0,-0.2538,-0.2537,0,-0.2452,-0.2451,-0.245,-0.2396,-0.2396,-0.2396,-0.2395,-0.2332,-0.233,-0.2329,0,0,0,0,0,0,0,0,0,0,0,0,0,-0.2423,-0.2427,-0.2538,-0.2537,-0.2536,-0.2452,-0.2451,-0.245,-0.2396,-0.2396,-0.2396,-0.2395,-0.2332,-0.233,-0.2329,0,0,0,0,0,0,0,0,0,0,0,0,0,-0.2417,-0.2428,-0.2538,-0.2501,-0.2497,-0.2453,-0.2451,-0.2449,-0.2396,-0.2396,-0.2396,-0.2395,-0.2333,-0.2331,-0.2328,-0.2316,0,0,-0.2321,-0.232,0,0,0,0,0,0,0,0,-0.2418,-0.2421,-0.2507,-0.2504,-0.2499,-0.2437,-0.2387,-0.2407,-0.2396,-0.2432,-0.2395,-0.2395,-0.2371,-0.2365,-0.2345,-0.2313,-0.231,-0.2321,-0.2319,-0.2318,-0.2317,0,0,0,0,0,0,0,-0.2419,-0.2423,-0.2501,-0.2507,-0.2501,-0.2409,-0.241,-0.2389,-0.2401,-0.2428,-0.2425,-0.2419,-0.2368,-0.2348,-0.2344,-0.2309,-0.2321,-0.2319,-0.2317,-0.2316,-0.2264,-0.2265,0,0,0,0,0,0,-0.2447,-0.2426,-0.2504,-0.2499,-0.246,-0.2413,-0.2413,-0.2455,-0.2401,-0.2393,-0.242,-0.2417,-0.2352,-0.2347,-0.2341,-0.2342,-0.2318,-0.2316,-0.2315,-0.2264,-0.2264,-0.2265,0,0,0,0,0,0,-0.2446,-0.2457,-0.2508,-0.2458,-0.2459,-0.2417,-0.2462,-0.2453,-0.2436,-0.2395,-0.2387,-0.2412,-0.2352,-0.2345,-0.2314,-0.2339,-0.2315,-0.2313,-0.2264,-0.2264,-0.2265,-0.2333,0,0,0,0,0,0,-0.2444,-0.2459,-0.2481,-0.2463,-0.2463,-0.2499,-0.2462,-0.2452,-0.2434,-0.243,-0.2386,-0.2379,-0.2351,-0.2318,-0.2312,-0.2335,-0.2311,-0.2264,-0.2264,-0.2264,-0.233,-0.2335,-0.2339,0,0,0,0,0,-0.2441,-0.2488,-0.2484,-0.2491,-0.2504,-0.25,-0.2491,-0.2455,-0.2434,-0.2437,-0.239,-0.2381,-0.2315,-0.2315,-0.2308,-0.2332,-0.2264,-0.2264,-0.2264,-0.2328,-0.2334,-0.2339,0,0,0,0,0,0,-0.2438,-0.2487,-0.2481,-0.2538,-0.2524,-0.2492,-0.2489,-0.2461,-0.2425,-0.2418,-0.2373,-0.2363,-0.2348,-0.2324,-0.2326,-0.2315,-0.2292,-0.2291,-0.2343,-0.2348,-0.2353,-0.2385,-0.2309,0,0,0,0,0,-0.2453,-0.2506,-0.2515,-0.2549,-0.2557,-0.2521,-0.2508,-0.2487,-0.2458,-0.2441,-0.2409,-0.2372,-0.2342,-0.2333,-0.2303,-0.2296,-0.226,-0.2307,-0.2312,-0.2316,-0.2336,-0.2309,-0.2313,-0.2265,-0.2265,-0.2265,0,0,-0.2441,-0.2486,-0.2502,-0.255,-0.2539,-0.2557,-0.2514,-0.2511,-0.2509,-0.2441,-0.2428,-0.2385,-0.234,-0.2328,-0.2321,-0.2314,-0.2299,-0.2316,-0.232,-0.2338,-0.231,-0.2315,-0.2319,-0.2265,-0.2265,-0.2265,0,0,-0.2437,-0.251,-0.2532,-0.2562,-0.2573,-0.2573,-0.258,-0.256,-0.2541,-0.2517,-0.2466,-0.2438,-0.2395,-0.2371,-0.2352,-0.2365,-0.232,-0.2355,-0.2411,-0.2385,-0.2389,-0.2393,-0.2309,-0.2304,-0.2364,-0.2364,-0.2364,0,-0.2416,-0.247,-0.2525,-0.2568,-0.2583,-0.2593,-0.2598,-0.2604,-0.2564,-0.2552,-0.2528,-0.2457,-0.2422,-0.2405,-0.2408,-0.238,-0.2333,-0.2397,-0.2393,-0.2396,-0.2398,-0.2312,-0.2306,-0.2367,-0.2367,-0.2366,-0.2366,0,-0.2423,-0.2474,-0.2502,-0.2577,-0.2602,-0.2623,-0.2653,-0.2673,-0.2656,-0.2636,-0.2607,-0.2546,-0.2507,-0.2493,-0.2454,-0.2456,-0.2402,-0.2398,-0.2385,-0.2408,-0.2313,-0.2306,-0.2372,-0.2371,-0.237,-0.2369,0,0,-0.2363,-0.2475,-0.2487,-0.2494,-0.2612,-0.261,-0.2688,-0.271,-0.2715,-0.2707,-0.2693,-0.2652,-0.2617,-0.2593,-0.2539,-0.2523,-0.2482,-0.2476,-0.2472,-0.2402,-0.2375,-0.2317,-0.2302,-0.2477,-0.2477,-0.2477,-0.2286,0,-0.2333,-0.2386,-0.2466,-0.2495,-0.2515,-0.2611,-0.2657,-0.2697,-0.272,-0.2731,-0.2716,-0.2673,-0.2657,-0.2609,-0.2608,-0.2501,-0.2474,-0.2531,-0.2356,-0.235,-0.2306,-0.2298,-0.2156,-0.1974,-0.2279,-0.2278,-0.2277,0,-0.2309,-0.2348,-0.2364,-0.2427,-0.2442,-0.2474,-0.2553,-0.2591,-0.2682,-0.2688,-0.2721,-0.2707,-0.2687,-0.2665,-0.2553,-0.2585,-0.25,-0.2429,-0.242,-0.2348,-0.2282,-0.2009,-0.1949,-0.2264,-0.2265,-0.2266,-0.2267,0,-0.2194,-0.2274,-0.2267,-0.2306,-0.2394,-0.2411,-0.2461,-0.2563,-0.2575,-0.2664,-0.2656,-0.2682,-0.262,-0.2586,-0.2478,-0.2503,-0.2338,-0.2347,-0.2215,-0.2206,-0.2045,-0.2023,-0.2288,-0.2288,-0.2289,-0.2289,-0.229,0,-0.2138,-0.2127,-0.2205,-0.2204,-0.2194,-0.2293,-0.2297,-0.2382,-0.2465,-0.2468,-0.2591,-0.2562,-0.2598,-0.2532,-0.2472,-0.2305,-0.2328,-0.222,-0.2168,-0.2058,-0.2041,-0.2277,-0.2278,-0.2282,-0.2284,-0.2285,-0.2286,0,-0.1993,-0.2059,-0.2048,-0.2116,-0.2136,-0.2124,-0.2201,-0.2207,-0.2297,-0.2318,-0.2336,-0.2427,-0.236,-0.2364,-0.2265,-0.2227,-0.2117,-0.2054,-0.1904,-0.1841,-0.1998,-0.2005,-0.189,-0.1886,-0.1884,-0.1881,-0.1879,0,-0.191,-0.1896,-0.196,-0.1952,-0.1972,-0.1987,-0.2006,-0.212,-0.2142,-0.2205,-0.219,-0.2184,-0.2174,-0.203,-0.1995,-0.1893,-0.1978,-0.1689,-0.175,-0.2004,-0.1964,-0.1976,-0.1986,-0.152,-0.1515,-0.1511,-0.1508,0,-0.174,-0.1777,-0.1769,-0.1788,-0.179,-0.1809,-0.1847,-0.1847,-0.1968,-0.1967,-0.1965,-0.1964,-0.1902,-0.1785,-0.1703,-0.1631,-0.172,-0.1607,-0.1882,-0.1677,-0.165,-0.1614,-0.1636,-0.1474,-0.1477,-0.148,-0.1481,-0.1483,-0.1598,-0.1574,-0.1596,-0.1594,-0.1614,-0.1629,-0.1599,-0.1646,-0.1651,-0.1649,-0.1721,-0.1652,-0.167,-0.1496,-0.1403,-0.135,-0.1476,-0.141,-0.1423,-0.1441,-0.1467,-0.1441,-0.1224,-0.1226,-0.1228,-0.1229,-0.1231,0,-0.1417,-0.1419,-0.1406,-0.1412,-0.1387,-0.1464,-0.1482,-0.1437,-0.1393,-0.142,-0.1398,-0.1263,-0.1183,-0.1203,-0.1074,-0.1051,-0.106,-0.1003,-0.1018,-0.1052,-0.1083,-0.1094,-0.075,-0.0748,-0.0747,-0.0746,0,0,-0.1311,-0.1252,-0.127,-0.1192,-0.1198,-0.114,-0.1129,-0.1091,-0.1089,-0.1021,-0.0991,-0.1076,-0.1141,-0.0936,-0.0897,-0.0801,-0.0915,-0.0757,-0.114,-0.1189,-0.1218,-0.1311,-0.1366,0,0,0,0,0]},{"header":{"parameterUnit":"m.s-1","parameterCategory":2,"la1":30.2991,"la2":30.254,"lo1":-89.0895,"lo2":-89.0444,"dy":0.0017,"dx":0.0017,"nx":28,"ny":28,"refTime":"2024-06-12T09:00:00:Z","depth":"2","parameterNumber":3,"parameterNumberName":"V-component_of_CURRENTS"},"data":[0,0,0,0,0,0,0,0,0,0,0,0,0,0,0,0,0,0,0,0,0,0,0,0,0,0,0,0,0,0,0,0,0,0,0,0,0,0,0,0,0,0,0,0,0,0,0,0,0,0,0,0,0,0,0,0,0,0,-0.029,-0.0289,0,-0.0204,-0.0204,-0.0203,-0.0161,-0.0161,-0.0161,-0.0161,-0.0066,-0.0064,-0.0062,0,0,0,0,0,0,0,0,0,0,0,0,0,-0.0371,-0.037,-0.029,-0.0289,-0.0287,-0.0205,-0.0204,-0.0203,-0.0161,-0.0161,-0.0161,-0.0161,-0.0067,-0.0064,-0.0061,0,0,0,0,0,0,0,0,0,0,0,0,0,-0.0318,-0.037,-0.029,-0.0255,-0.0251,-0.0205,-0.0204,-0.0202,-0.0161,-0.0161,-0.0161,-0.016,-0.0068,-0.0065,-0.0061,-0.0044,0,0,-0.005,-0.0049,0,0,0,0,0,0,0,0,-0.0321,-0.0315,-0.0262,-0.0258,-0.0253,-0.0192,-0.0197,-0.0148,-0.0161,-0.0197,-0.0161,-0.016,-0.0106,-0.01,-0.0087,-0.0039,-0.0035,-0.005,-0.0048,-0.0046,-0.0045,0,0,0,0,0,0,0,-0.0325,-0.0318,-0.0258,-0.026,-0.0255,-0.0228,-0.0221,-0.0188,-0.0155,-0.0194,-0.019,-0.0178,-0.0104,-0.009,-0.0084,-0.0034,-0.005,-0.0047,-0.0045,-0.0043,0.0028,0.0027,0,0,0,0,0,0,-0.0334,-0.0322,-0.026,-0.0255,-0.0285,-0.0227,-0.0219,-0.0213,-0.0156,-0.0146,-0.0178,-0.0176,-0.0096,-0.0088,-0.0081,-0.0058,-0.0046,-0.0043,-0.0041,0.0028,0.0028,0.0027,0,0,0,0,0,0,-0.0336,-0.033,-0.0264,-0.0285,-0.0274,-0.0226,-0.0219,-0.0211,-0.0198,-0.0144,-0.0134,-0.0173,-0.0096,-0.0086,-0.006,-0.0054,-0.0041,-0.0038,0.0028,0.0028,0.0027,-0.0011,0,0,0,0,0,0,-0.0339,-0.0331,-0.0329,-0.0286,-0.0273,-0.0237,-0.0219,-0.021,-0.019,-0.0187,-0.0136,-0.0127,-0.0095,-0.0065,-0.0056,-0.0049,-0.0035,0.0028,0.0028,0.0028,-0.001,-0.0013,-0.0016,0,0,0,0,0,-0.0343,-0.0338,-0.033,-0.0322,-0.0273,-0.0237,-0.0228,-0.0194,-0.019,-0.0183,-0.0157,-0.0129,-0.0062,-0.0063,-0.0052,-0.0043,0.0029,0.0028,0.0028,-0.0008,-0.0012,-0.0016,0,0,0,0,0,0,-0.0368,-0.0331,-0.0322,-0.0306,-0.0276,-0.0229,-0.0216,-0.0199,-0.0173,-0.0173,-0.0131,-0.012,-0.0098,-0.0068,-0.0071,-0.0026,-0.0012,-0.001,-0.0043,-0.0046,-0.0049,-0.0045,-0.0032,0,0,0,0,0,-0.0375,-0.0362,-0.0325,-0.0311,-0.03,-0.0263,-0.0244,-0.0224,-0.0194,-0.0182,-0.0148,-0.0116,-0.0091,-0.0068,-0.0042,-0.0013,0.0025,-0.0001,-0.0004,-0.0007,0.0003,0.0072,0.0077,0.0025,0.0025,0.0025,0,0,-0.0378,-0.0356,-0.0348,-0.0315,-0.0291,-0.0273,-0.0252,-0.0226,-0.0212,-0.0175,-0.015,-0.0128,-0.009,-0.0063,-0.0049,-0.0035,0.0021,-0.0007,-0.001,0.0002,0.0072,0.0077,0.0082,0.0025,0.0025,0.0025,0,0,-0.0379,-0.0364,-0.0357,-0.0338,-0.0304,-0.028,-0.0277,-0.0238,-0.0223,-0.0199,-0.0175,-0.0147,-0.0104,-0.007,-0.0051,-0.0052,-0.0005,-0.0049,-0.0048,0.0018,0.0024,0.0029,0.0055,0.0063,-0.0041,-0.0041,-0.0041,0,-0.0392,-0.0377,-0.0348,-0.0339,-0.0327,-0.0288,-0.0284,-0.0258,-0.0214,-0.0201,-0.0196,-0.013,-0.0103,-0.0061,-0.0068,-0.0056,-0.0025,-0.0038,0.0016,0.0022,0.0029,0.0054,0.0063,-0.0043,-0.0043,-0.0043,-0.0042,0,-0.039,-0.038,-0.0374,-0.0353,-0.0334,-0.0322,-0.0289,-0.0268,-0.025,-0.0221,-0.0184,-0.0143,-0.0099,-0.0091,-0.0081,-0.0029,-0.0026,-0.0003,0.0027,0.0032,0.0057,0.0068,-0.0046,-0.0045,-0.0044,-0.0044,0,0,-0.0433,-0.0385,-0.0388,-0.0384,-0.0347,-0.0336,-0.031,-0.0278,-0.0262,-0.0215,-0.0184,-0.0145,-0.0117,-0.0093,-0.0066,-0.0011,0.0039,0.0007,0.0011,0.0034,0.016,0.015,0.0161,0.0077,0.0079,0.0081,0.015,0,-0.0451,-0.0439,-0.041,-0.0405,-0.0401,-0.0362,-0.0346,-0.0309,-0.027,-0.0225,-0.0168,-0.0133,-0.0118,-0.0101,-0.0041,0.0019,0.007,0.0016,0.0151,0.0155,0.0149,0.0174,0.0178,0.0241,0.0161,0.0163,0.0164,0,-0.0476,-0.0463,-0.0459,-0.0439,-0.0437,-0.0427,-0.0396,-0.0376,-0.0299,-0.027,-0.0202,-0.0151,-0.0075,-0.0059,0.0069,0.0034,0.0092,0.0143,0.0148,0.0166,0.0166,0.023,0.0264,0.0182,0.018,0.0179,0.0178,0,-0.053,-0.051,-0.0509,-0.0502,-0.0464,-0.0462,-0.0448,-0.0391,-0.0379,-0.029,-0.0263,-0.0153,-0.0113,0.0002,0.0083,0.009,0.022,0.025,0.0296,0.0295,0.034,0.0339,0.0354,0.0354,0.0354,0.0354,0.0353,0,-0.0567,-0.0572,-0.0536,-0.0536,-0.0549,-0.0514,-0.0515,-0.0477,-0.0423,-0.0397,-0.0296,-0.0246,-0.0093,-0.0005,0.0091,0.0209,0.0229,0.0306,0.0326,0.0321,0.0317,0.0304,0.0298,0.0356,0.0356,0.0355,0.0355,0,-0.0614,-0.0589,-0.0594,-0.057,-0.0569,-0.0582,-0.0572,-0.0566,-0.0514,-0.0468,-0.0443,-0.0316,-0.0187,-0.0058,0.0114,0.0197,0.0324,0.0354,0.0309,0.0324,0.0355,0.0346,0.0456,0.0456,0.0457,0.0457,0.0457,0,-0.063,-0.0632,-0.0628,-0.0638,-0.0629,-0.0641,-0.0647,-0.0614,-0.0601,-0.0508,-0.0486,-0.0359,-0.0241,-0.002,0.015,0.0326,0.032,0.0412,0.0445,0.0364,0.0373,0.0363,0.0353,0.0477,0.0478,0.0478,0.0478,0,-0.066,-0.066,-0.0662,-0.0683,-0.0698,-0.0718,-0.0721,-0.0723,-0.0669,-0.06,-0.0493,-0.0387,-0.018,0.0038,0.0224,0.0327,0.0393,0.0426,0.0385,0.0439,0.0388,0.0395,0.0384,0.0482,0.0481,0.0481,0.0481,0.0481,-0.0683,-0.0699,-0.0703,-0.0727,-0.0752,-0.0777,-0.0787,-0.0753,-0.0709,-0.0579,-0.0495,-0.0305,-0.013,0.0181,0.0312,0.0429,0.0441,0.05,0.0498,0.0496,0.0475,0.0426,0.0521,0.0521,0.0521,0.0521,0.0521,0,-0.0699,-0.0715,-0.0743,-0.0773,-0.0811,-0.081,-0.0819,-0.0792,-0.0708,-0.0554,-0.0406,-0.0184,0.0051,0.0205,0.0411,0.0533,0.0529,0.0541,0.053,0.0527,0.0524,0.0503,0.0558,0.0558,0.0558,0.0558,0,0,-0.0705,-0.0729,-0.0745,-0.0808,-0.0836,-0.0865,-0.0864,-0.0782,-0.0677,-0.0488,-0.0326,-0.0124,0.0067,0.0226,0.0373,0.0472,0.0461,0.0472,0.0435,0.0402,0.0398,0.0497,0.0461,0,0,0,0,0]}],[{"header":{"parameterUnit":"m.s-1","parameterCategory":2,"la1":30.2991,"la2":30.254,"lo1":-89.0895,"lo2":-89.0444,"dy":0.0017,"dx":0.0017,"nx":28,"ny":28,"refTime":"2024-06-12T09:00:00:Z","depth":"4","parameterNumber":2,"parameterNumberName":"U-component_of_CURRENTS"},"data":[0,0,0,0,0,0,0,0,0,0,0,0,0,0,0,0,0,0,0,0,0,0,0,0,0,0,0,0,0,0,0,0,0,0,0,0,0,0,0,0,0,0,0,0,0,0,0,0,0,0,0,0,0,0,0,0,0,0,-0.0927,-0.0927,0,-0.0947,-0.0947,-0.0947,-0.0969,-0.0969,-0.097,-0.097,-0.1062,-0.1064,-0.1065,0,0,0,0,0,0,0,0,0,0,0,0,0,-0.0986,-0.0984,-0.0927,-0.0927,-0.0928,-0.0947,-0.0947,-0.0947,-0.0969,-0.0969,-0.097,-0.0971,-0.1061,-0.1063,-0.1066,0,0,0,0,0,0,0,0,0,0,0,0,0,-0.0976,-0.0984,-0.0927,-0.0943,-0.0945,-0.0947,-0.0947,-0.0947,-0.0968,-0.0969,-0.097,-0.0971,-0.106,-0.1063,-0.1066,-0.1066,0,0,-0.1075,-0.1076,0,0,0,0,0,0,0,0,-0.0976,-0.0973,-0.094,-0.0942,-0.0944,-0.0959,-0.1002,-0.0991,-0.0968,-0.0956,-0.097,-0.0971,-0.1035,-0.104,-0.1037,-0.107,-0.1074,-0.1075,-0.1077,-0.1078,-0.1079,0,0,0,0,0,0,0,-0.0977,-0.0973,-0.0932,-0.0941,-0.0943,-0.0977,-0.0975,-0.1,-0.099,-0.0957,-0.096,-0.0967,-0.1037,-0.1034,-0.1039,-0.1075,-0.1075,-0.1077,-0.1079,-0.108,-0.1286,-0.129,0,0,0,0,0,0,-0.0975,-0.0973,-0.0931,-0.0933,-0.0966,-0.0975,-0.0973,-0.0951,-0.0988,-0.0995,-0.0966,-0.0968,-0.1029,-0.1036,-0.1043,-0.1159,-0.1078,-0.108,-0.1082,-0.1283,-0.1287,-0.1291,0,0,0,0,0,0,-0.0975,-0.0969,-0.093,-0.0958,-0.0956,-0.0973,-0.0948,-0.0951,-0.0982,-0.0994,-0.1002,-0.0998,-0.103,-0.1039,-0.1102,-0.1159,-0.1082,-0.1084,-0.1278,-0.1284,-0.1289,-0.132,0,0,0,0,0,0,-0.0976,-0.0969,-0.0955,-0.0956,-0.0954,-0.0952,-0.0947,-0.0951,-0.0984,-0.0987,-0.1024,-0.1031,-0.1031,-0.1097,-0.1104,-0.1161,-0.1086,-0.1273,-0.1281,-0.1287,-0.1314,-0.1326,-0.1336,0,0,0,0,0,-0.0978,-0.0961,-0.0953,-0.0949,-0.0931,-0.0953,-0.0955,-0.0969,-0.0985,-0.1,-0.1037,-0.1032,-0.1149,-0.1101,-0.1109,-0.1168,-0.127,-0.1279,-0.1287,-0.1309,-0.1323,-0.1336,0,0,0,0,0,0,-0.1001,-0.0962,-0.0953,-0.093,-0.0948,-0.0958,-0.0972,-0.099,-0.1027,-0.1037,-0.1057,-0.1067,-0.1158,-0.1163,-0.1111,-0.1258,-0.1219,-0.1229,-0.1233,-0.1247,-0.1258,-0.1295,-0.1089,0,0,0,0,0,-0.0992,-0.0952,-0.0954,-0.0939,-0.0949,-0.0967,-0.098,-0.0993,-0.1024,-0.1042,-0.1068,-0.112,-0.1193,-0.1217,-0.1268,-0.1323,-0.1289,-0.1379,-0.139,-0.1399,-0.1441,-0.135,-0.1354,-0.1319,-0.1319,-0.1319,0,0,-0.101,-0.0972,-0.0961,-0.094,-0.0952,-0.0968,-0.0978,-0.1006,-0.1032,-0.1047,-0.1097,-0.1159,-0.1223,-0.1298,-0.134,-0.1308,-0.1405,-0.1409,-0.1416,-0.1454,-0.1359,-0.1361,-0.1363,-0.1325,-0.1324,-0.1323,0,0,-0.1032,-0.0985,-0.0976,-0.098,-0.0989,-0.0986,-0.1006,-0.1032,-0.1057,-0.1109,-0.1158,-0.1266,-0.1315,-0.1397,-0.1442,-0.1552,-0.1473,-0.1563,-0.1629,-0.1539,-0.1539,-0.1538,-0.1532,-0.1531,-0.1553,-0.1553,-0.1553,0,-0.1054,-0.1031,-0.099,-0.0992,-0.1007,-0.1002,-0.1038,-0.1048,-0.1094,-0.1107,-0.1134,-0.1266,-0.1378,-0.147,-0.1579,-0.1579,-0.151,-0.1558,-0.1544,-0.1543,-0.1541,-0.1535,-0.1533,-0.1556,-0.1555,-0.1555,-0.1555,0,-0.1083,-0.107,-0.1074,-0.1048,-0.1059,-0.1084,-0.1093,-0.1106,-0.1133,-0.1136,-0.1224,-0.1348,-0.1419,-0.1509,-0.1617,-0.1691,-0.1643,-0.1563,-0.1487,-0.1545,-0.1538,-0.1535,-0.1559,-0.1558,-0.1558,-0.1557,0,0,-0.111,-0.1097,-0.1099,-0.1106,-0.1094,-0.1107,-0.1126,-0.1137,-0.1144,-0.1181,-0.1202,-0.144,-0.1464,-0.1533,-0.1634,-0.1667,-0.1717,-0.1653,-0.1646,-0.1612,-0.1536,-0.1479,-0.147,-0.1561,-0.156,-0.156,-0.1543,0,-0.1154,-0.117,-0.1154,-0.1185,-0.12,-0.1184,-0.1209,-0.1205,-0.1198,-0.1197,-0.1276,-0.1349,-0.1461,-0.1546,-0.1576,-0.1697,-0.1704,-0.1733,-0.1521,-0.152,-0.1426,-0.1463,-0.1557,-0.1541,-0.154,-0.1539,-0.1539,0,-0.1181,-0.1183,-0.1236,-0.1246,-0.126,-0.128,-0.1277,-0.1298,-0.1259,-0.1268,-0.1253,-0.126,-0.1403,-0.1458,-0.1537,-0.1514,-0.1568,-0.1626,-0.1619,-0.1558,-0.1455,-0.147,-0.1533,-0.1533,-0.1533,-0.1534,-0.1534,0,-0.1196,-0.1228,-0.127,-0.1277,-0.1297,-0.1329,-0.1342,-0.1317,-0.1332,-0.1291,-0.1294,-0.1274,-0.1371,-0.1331,-0.1507,-0.1482,-0.155,-0.147,-0.1439,-0.1437,-0.1473,-0.1473,-0.1471,-0.1471,-0.1471,-0.1471,-0.1471,0,-0.1204,-0.1233,-0.129,-0.1305,-0.1363,-0.1374,-0.1409,-0.1405,-0.1399,-0.1385,-0.1341,-0.1347,-0.1347,-0.136,-0.1425,-0.1448,-0.1427,-0.1489,-0.1418,-0.1499,-0.1501,-0.1472,-0.1472,-0.1471,-0.1471,-0.1471,-0.1471,0,-0.1182,-0.1226,-0.127,-0.1336,-0.1366,-0.1403,-0.1457,-0.1445,-0.1481,-0.1458,-0.1453,-0.143,-0.1435,-0.142,-0.1451,-0.1404,-0.1402,-0.141,-0.158,-0.1514,-0.1366,-0.1369,-0.1304,-0.1301,-0.1299,-0.1298,-0.1296,0,-0.1159,-0.1185,-0.1283,-0.1305,-0.1339,-0.14,-0.1418,-0.1474,-0.1454,-0.15,-0.1476,-0.1495,-0.1459,-0.1419,-0.1435,-0.1389,-0.1404,-0.1368,-0.1337,-0.1407,-0.1344,-0.135,-0.1356,-0.1293,-0.1292,-0.1292,-0.1291,0,-0.1098,-0.1154,-0.118,-0.1248,-0.129,-0.1331,-0.137,-0.1372,-0.1411,-0.1476,-0.1435,-0.139,-0.1406,-0.1361,-0.1363,-0.1341,-0.1347,-0.1346,-0.135,-0.132,-0.1392,-0.1334,-0.1342,-0.1284,-0.1285,-0.1286,-0.1286,0,-0.1032,-0.1046,-0.1095,-0.1142,-0.1198,-0.1214,-0.1264,-0.1256,-0.1283,-0.1335,-0.1333,-0.1352,-0.1395,-0.1344,-0.1341,-0.1303,-0.1268,-0.1202,-0.1212,-0.122,-0.1201,-0.1281,-0.1095,0,0,0,0,0,-0.0943,-0.094,-0.097,-0.1016,-0.1073,-0.1114,-0.1186,-0.1229,-0.1305,-0.1237,-0.1277,-0.1263,-0.123,-0.1257,-0.1196,-0.1304,-0.1276,-0.1227,-0.1208,-0.1245,-0.1253,-0.124,0,0,0,0,0,0,-0.0871,-0.0891,-0.0922,-0.0898,-0.0906,-0.0958,-0.1002,-0.1062,-0.1039,-0.112,-0.1113,-0.1179,-0.1175,-0.1238,-0.1165,-0.1172,-0.1131,-0.1262,-0.1258,-0.1241,-0.1248,-0.1255,-0.1243,0,0,0,0,0]},{"header":{"parameterUnit":"m.s-1","parameterCategory":2,"la1":30.2991,"la2":30.254,"lo1":-89.0895,"lo2":-89.0444,"dy":0.0017,"dx":0.0017,"nx":28,"ny":28,"refTime":"2024-06-12T09:00:00:Z","depth":"4","parameterNumber":3,"parameterNumberName":"V-component_of_CURRENTS"},"data":[0,0,0,0,0,0,0,0,0,0,0,0,0,0,0,0,0,0,0,0,0,0,0,0,0,0,0,0,0,0,0,0,0,0,0,0,0,0,0,0,0,0,0,0,0,0,0,0,0,0,0,0,0,0,0,0,0,0,-0.0317,-0.0318,0,-0.0357,-0.0357,-0.0357,-0.0358,-0.0358,-0.0358,-0.0357,-0.0296,-0.0295,-0.0293,0,0,0,0,0,0,0,0,0,0,0,0,0,-0.0251,-0.0252,-0.0317,-0.0318,-0.0319,-0.0357,-0.0357,-0.0357,-0.0359,-0.0358,-0.0358,-0.0357,-0.0296,-0.0295,-0.0293,0,0,0,0,0,0,0,0,0,0,0,0,0,-0.0282,-0.0252,-0.0317,-0.0325,-0.0326,-0.0356,-0.0357,-0.0357,-0.0359,-0.0358,-0.0357,-0.0357,-0.0297,-0.0295,-0.0293,-0.0292,0,0,-0.0287,-0.0286,0,0,0,0,0,0,0,0,-0.0281,-0.0285,-0.0323,-0.0324,-0.0325,-0.0353,-0.0311,-0.0331,-0.0359,-0.0345,-0.0357,-0.0357,-0.0307,-0.0304,-0.0312,-0.0289,-0.0287,-0.0287,-0.0286,-0.0285,-0.0284,0,0,0,0,0,0,0,-0.0278,-0.0283,-0.0332,-0.0324,-0.0325,-0.0328,-0.0332,-0.0315,-0.0326,-0.0346,-0.0347,-0.0353,-0.0307,-0.0314,-0.0311,-0.0286,-0.0287,-0.0285,-0.0284,-0.0283,-0.0246,-0.0246,0,0,0,0,0,0,-0.0276,-0.0281,-0.033,-0.0333,-0.0303,-0.033,-0.0334,-0.0344,-0.0328,-0.0326,-0.0353,-0.0353,-0.0318,-0.0313,-0.0308,-0.0318,-0.0285,-0.0283,-0.0282,-0.0246,-0.0246,-0.0247,0,0,0,0,0,0,-0.0275,-0.0281,-0.0329,-0.0309,-0.0315,-0.0332,-0.0343,-0.0345,-0.0358,-0.0335,-0.0331,-0.0365,-0.0317,-0.0311,-0.0293,-0.0314,-0.0282,-0.0281,-0.0246,-0.0246,-0.0246,-0.0328,0,0,0,0,0,0,-0.0273,-0.028,-0.0285,-0.0309,-0.0316,-0.0353,-0.0343,-0.0346,-0.0363,-0.0363,-0.0343,-0.0337,-0.0316,-0.0296,-0.0291,-0.0311,-0.0279,-0.0246,-0.0246,-0.0246,-0.0325,-0.0331,-0.0336,0,0,0,0,0,-0.027,-0.028,-0.0285,-0.0291,-0.0323,-0.0354,-0.0359,-0.0367,-0.0364,-0.0376,-0.0355,-0.0338,-0.0294,-0.0295,-0.0289,-0.0309,-0.0246,-0.0246,-0.0246,-0.0323,-0.033,-0.0336,0,0,0,0,0,0,-0.0257,-0.0282,-0.0287,-0.0305,-0.0331,-0.0355,-0.0363,-0.0374,-0.0371,-0.0365,-0.034,-0.0332,-0.0323,-0.03,-0.0301,-0.0296,-0.0267,-0.0267,-0.0327,-0.0334,-0.0339,-0.0312,-0.0277,0,0,0,0,0,-0.0257,-0.0267,-0.0297,-0.0312,-0.0323,-0.0345,-0.0358,-0.0371,-0.0374,-0.0374,-0.0361,-0.0338,-0.0321,-0.0314,-0.0292,-0.0293,-0.0248,-0.03,-0.0305,-0.031,-0.0282,-0.0292,-0.0297,-0.0248,-0.0248,-0.0248,0,0,-0.0254,-0.027,-0.0275,-0.0309,-0.0324,-0.0352,-0.0351,-0.0377,-0.04,-0.0364,-0.0376,-0.0354,-0.0322,-0.0322,-0.0316,-0.0307,-0.029,-0.0311,-0.0316,-0.0284,-0.0293,-0.0298,-0.0303,-0.0248,-0.0248,-0.0248,0,0,-0.0255,-0.027,-0.0279,-0.0303,-0.0335,-0.0358,-0.0368,-0.0399,-0.041,-0.0425,-0.0398,-0.0386,-0.0371,-0.0354,-0.0341,-0.036,-0.0315,-0.036,-0.0375,-0.0387,-0.0391,-0.0395,-0.0301,-0.0295,-0.037,-0.037,-0.0371,0,-0.0254,-0.0271,-0.0288,-0.0309,-0.0328,-0.0362,-0.0385,-0.041,-0.0432,-0.044,-0.0433,-0.0417,-0.0385,-0.0386,-0.0377,-0.0375,-0.0338,-0.0361,-0.0396,-0.0399,-0.0401,-0.0304,-0.0297,-0.0374,-0.0374,-0.0374,-0.0373,0,-0.0268,-0.0282,-0.0292,-0.0329,-0.0352,-0.0381,-0.0419,-0.0445,-0.0464,-0.0487,-0.0497,-0.0469,-0.0455,-0.0454,-0.041,-0.0413,-0.0363,-0.0403,-0.0386,-0.0411,-0.0306,-0.0298,-0.038,-0.0379,-0.0378,-0.0377,0,0,-0.028,-0.0296,-0.0304,-0.0313,-0.0365,-0.039,-0.0428,-0.0474,-0.049,-0.053,-0.0543,-0.0524,-0.0515,-0.0494,-0.0468,-0.0461,-0.0417,-0.0426,-0.0425,-0.0339,-0.0365,-0.0314,-0.0298,-0.0485,-0.0485,-0.0485,-0.027,0,-0.0292,-0.0316,-0.0326,-0.0362,-0.038,-0.0414,-0.044,-0.0485,-0.0513,-0.0534,-0.0551,-0.0544,-0.0537,-0.0513,-0.0519,-0.0437,-0.0403,-0.0464,-0.0344,-0.0337,-0.0299,-0.0291,-0.0485,-0.0263,-0.0261,-0.0259,-0.0258,0,-0.0319,-0.0327,-0.035,-0.0364,-0.0375,-0.0404,-0.0446,-0.0473,-0.0517,-0.0526,-0.056,-0.0562,-0.0538,-0.0537,-0.0456,-0.0499,-0.0416,-0.0363,-0.0357,-0.0271,-0.0272,-0.024,-0.0241,-0.0243,-0.0244,-0.0245,-0.0246,0,-0.0332,-0.0351,-0.0364,-0.0377,-0.0403,-0.0417,-0.0438,-0.0478,-0.0492,-0.0518,-0.0508,-0.0538,-0.0497,-0.0479,-0.0366,-0.041,-0.0249,-0.0316,-0.0185,-0.0176,-0.0251,-0.025,-0.0248,-0.0248,-0.0249,-0.025,-0.025,0,-0.0355,-0.0371,-0.037,-0.0385,-0.0404,-0.0414,-0.044,-0.0458,-0.047,-0.0472,-0.0498,-0.0477,-0.0482,-0.0409,-0.0348,-0.021,-0.0245,-0.0148,-0.0133,-0.028,-0.0286,-0.024,-0.0242,-0.0241,-0.0243,-0.0245,-0.0246,0,-0.0379,-0.0378,-0.0399,-0.0409,-0.0415,-0.0435,-0.045,-0.0465,-0.0447,-0.044,-0.0439,-0.0407,-0.0308,-0.0268,-0.0164,-0.0138,-0.0044,0.0021,-0.0038,-0.0035,0.0046,0.0037,0.017,0.0173,0.0176,0.0178,0.018,0,-0.0392,-0.0401,-0.0423,-0.0439,-0.0448,-0.0468,-0.0484,-0.0477,-0.0475,-0.0392,-0.0379,-0.0272,-0.0247,-0.0035,-0.0016,0.011,0.0108,0.0188,0.0027,0.0081,0.0082,0.0069,0.0057,0.0185,0.0185,0.0186,0.0187,0,-0.0414,-0.0425,-0.0441,-0.0469,-0.0491,-0.0509,-0.0513,-0.0494,-0.0455,-0.0431,-0.0299,-0.0211,-0.0069,0.0001,0.0135,0.0196,0.0124,0.0216,0.0208,0.0057,0.0099,0.0095,0.008,0.0196,0.0195,0.0194,0.0193,0,-0.0432,-0.0451,-0.0469,-0.0497,-0.0528,-0.0529,-0.0528,-0.0476,-0.0449,-0.0336,-0.0286,-0.0149,-0.008,0.0056,0.0154,0.0238,0.0215,0.0207,0.0199,0.0189,0.0091,0.0141,0.0291,0,0,0,0,0,-0.044,-0.0458,-0.0489,-0.0516,-0.055,-0.0561,-0.0539,-0.0521,-0.0456,-0.0357,-0.0313,-0.0185,-0.0009,0.0057,0.015,0.0157,0.0202,0.0266,0.0181,0.0249,0.0238,0.0117,0,0,0,0,0,0,-0.0443,-0.0473,-0.0488,-0.0526,-0.055,-0.0574,-0.0557,-0.051,-0.0442,-0.0359,-0.0269,-0.0184,-0.0031,-0.0073,0.014,0.0167,0.0124,0.0348,0.035,0.0256,0.0245,0.0237,0.0109,0,0,0,0,0]}]]